Home   Weather   Modesto   Past weeks

Flag for USA Past Weather in Modesto, California, USA — Yesterday and Last 2 Weeks

Now
48 °F

Clear.


Feels Like: 45 °F
Forecast: 37 / 59 °F
Wind: 7 mph from Northwest

Location: Modesto City-County-Sham Field

Current Time: Feb 27, 2017 at 7:38:21 pm

Latest Report: Feb 27, 2017 at 6:53 pm


Visibility: 10 mi

Pressure: 29.94 "Hg

Humidity: 50%

Dew Point: 30 °F

Location of ModestoLocation

Past Weather in Modesto — Graph

°F

Modesto Temperature Yesterday

Maximum temperature yesterday: 58 °F (at 1:53 pm)
Minimum temperature yesterday: 37 °F (at 6:53 am)
Average temperature yesterday: 49 °F

High & Low Weather Summary for the Past Weeks

 TemperatureHumidityPressure
High68 °F (Feb 14, 2:53 pm)97% (Feb 20, 7:53 am)30.28 "Hg (Feb 20, 7:53 am)
Low37 °F (Feb 23, 6:53 am)33% (Feb 25, 12:53 pm)29.18 "Hg (Feb 17, 5:53 pm)
Average53 °F71%29.98 "Hg
* Reported Feb 12 5:53 pm — Feb 27 5:53 pm, Modesto, Weather by CustomWeather, © 2017

Note: Actual official high and low records may vary slightly from our data, if they occured in-between our weather recording intervals... More about our weather records

Advertising

Modesto Weather History for the Previous 24 Hours

Scroll right to see more
 ConditionsComfort  
Time TempWeatherWind HumidityBarometerVisibility
5:53 pm
Mon, Feb 27
51 °FSunny.9 mph42%29.92 "Hg10 mi
4:53 pm55 °FSunny.12 mph35%29.91 "Hg10 mi
3:53 pm56 °FSunny.12 mph37%29.91 "Hg10 mi
2:53 pm57 °FSunny.10 mph41%29.91 "Hg10 mi
1:53 pm57 °FScattered clouds.6 mph37%29.92 "Hg10 mi
12:53 pm55 °FScattered clouds.7 mph42%29.94 "Hg10 mi
11:53 am54 °FScattered clouds.No wind41%29.96 "Hg10 mi
10:53 am52 °FPassing clouds.5 mph55%29.96 "Hg10 mi
9:53 am51 °FScattered clouds.8 mph56%29.96 "Hg10 mi
8:53 am50 °FScattered clouds.7 mph66%29.96 "Hg10 mi
7:53 am47 °FScattered clouds.No wind80%29.95 "Hg10 mi
6:53 am46 °FScattered clouds.3 mph77%29.93 "Hg10 mi
5:53 am47 °FOvercast.3 mph74%29.92 "Hg10 mi
4:53 am47 °FMostly cloudy.3 mph77%29.91 "Hg10 mi
3:53 am48 °FMostly cloudy.No wind71%29.90 "Hg10 mi
2:53 am47 °FMostly cloudy.3 mph71%29.91 "Hg10 mi
1:53 am48 °FPassing clouds.No wind71%29.92 "Hg10 mi
12:53 am49 °FOvercast.3 mph69%29.92 "Hg10 mi
11:53 pm
Sun, Feb 26
50 °FOvercast.No wind66%29.92 "Hg10 mi
10:53 pm50 °FLight rain. Overcast.8 mph66%29.91 "Hg10 mi
9:53 pm51 °FMostly cloudy.10 mph61%29.90 "Hg10 mi
8:53 pm51 °FOvercast.9 mph61%29.90 "Hg10 mi
7:53 pm51 °FPartly cloudy.13 mph61%29.90 "Hg10 mi
Weather by CustomWeather, © 2017

See weather overviewHow to use our weather pages